Location: Ar Ranvel
(48.3000°N, 4.8833°W)
Time: 14:29:54
(UTC+00:00)

NOSS 3-2 (C) - Pass Details

Date: 16 June 2021
Orbit: 778 x 1434 km, 63.4° (Epoch: 14 July)

Event Time Altitude Azimuth Distance (km) Brightness Sun altitude
Rises 21:09:14 0° 217° (SW) 3,325 6.2 -6.5°
Reaches altitude 10° 21:11:31 10° 217° (SW) 2,444 5.5 -6.8°
Maximum altitude 21:17:09 85° 130° (SE) 924 3.4 -7.4°
Drops below altitude 10° 21:23:44 10° 42° (NE) 2,837 6.0 -8.1°
Sets 21:26:34 0° 42° (NE) 3,898 6.8 -8.5°
